Date String (YYYY-MM-DD hh:mm:ss) UTC,Instrument flags,absolute air pressure of the measurement (hPa),sample flow rate (lpm),inlet stack bypass flow (lpm),air temperature of the measurement (°C),ambient temperature measured by the external sensor (°C),aerosol sample conditioner tube jacket temperature (°C),OPC LED temperature (°C),internal box temperature (°C),relative humidity of the measurement (%),span deviation,mass concentration of particles derived from Lorenz-Mie calculation of OPC scattering (μg/m³),mass concentration of particles derived from Lorenz-Mie calculation of OPC scattering (μg/m³),mass concentration of particles derived from Lorenz-Mie calculation of OPC scattering (μg/m³)
DateTimeUTC,F1_M11,P_M11,Q1_M11,Q2_M11,T1_M11,T2_M11,T3_M11,T4_M11,T5_M11,U1_M11,ZSPAN_M11,X2_M11,X0_M11,X1_M11
2023-08-06 14:00:00,SystemResetWarning,0838.2,5.02,000.00,030.1,025.6,000.0,038.5,031.3,31.8,-000.3,0003.86,0005.82,0003.52
2023-08-06 14:01:00,SystemResetWarning,0838.1,5.01,000.00,029.9,025.4,000.0,038.4,031.0,32.1,0000.0,0003.86,0006.03,0003.53
2023-08-06 14:02:00,SystemResetWarning,0838.2,4.99,000.00,029.8,025.7,000.0,038.4,030.8,32.5,0000.0,0003.84,0006.00,0003.52
2023-08-06 14:03:00,SystemResetWarning,0838.2,5.00,000.00,029.7,026.1,000.0,038.4,030.9,32.8,0000.0,0003.83,0007.09,0003.52
2023-08-06 14:04:00,SystemResetWarning,0838.2,5.01,000.00,029.7,026.5,000.0,038.4,031.0,33.1,0000.0,0003.83,0007.19,0003.53
2023-08-06 14:05:00,SystemResetWarning,0838.2,5.00,000.00,029.7,026.8,000.0,038.4,031.0,33.3,0000.0,0003.86,0007.32,0003.54
2023-08-06 14:06:00,SystemResetWarning,0838.2,5.00,000.00,029.7,027.1,000.0,038.4,031.1,32.9,0000.0,0003.87,0007.35,0003.53
2023-08-06 14:07:00,SystemResetWarning,0838.2,5.00,000.00,029.6,027.4,000.0,038.4,031.1,32.4,0000.0,0003.88,0007.40,0003.52
2023-08-06 14:08:00,SystemResetWarning,0838.1,4.99,000.00,029.6,027.6,000.0,038.4,031.1,31.6,0000.0,0003.88,0007.40,0003.52
2023-08-06 14:09:00,SystemResetWarning,0838.1,5.00,000.00,029.6,027.7,000.0,038.4,031.1,31.8,0000.0,0003.85,0007.36,0003.50
2023-08-06 14:10:00,SystemResetWarning,0838.2,5.00,000.00,029.6,027.9,000.0,038.3,031.2,31.5,0000.0,0003.86,0007.33,0003.50
2023-08-06 14:11:00,SystemResetWarning,0838.1,5.00,000.00,029.7,028.0,000.0,038.3,031.2,31.4,0000.0,0003.83,0007.13,0003.49
2023-08-06 14:12:00,SystemResetWarning,0838.2,5.00,000.00,029.7,028.1,000.0,038.3,031.2,31.2,0000.0,0003.80,0006.74,0003.48
2023-08-06 14:13:00,SystemResetWarning,0838.1,5.01,000.00,029.7,028.2,000.0,038.3,031.2,31.2,0000.0,0003.79,0006.82,0003.48
2023-08-06 14:14:00,SystemResetWarning,0838.2,4.99,000.00,029.7,028.2,000.0,038.3,031.2,31.3,0000.0,0003.83,0006.24,0003.48
2023-08-06 14:15:00,SystemResetWarning,0838.2,4.99,000.00,029.7,028.3,000.0,038.3,031.2,31.1,0000.0,0003.85,0006.13,0003.49
2023-08-06 14:16:00,SystemResetWarning,0838.3,5.01,000.00,029.7,028.3,000.0,038.3,031.3,31.0,0000.0,0003.86,0006.50,0003.49
2023-08-06 14:17:00,SystemResetWarning,0838.3,5.00,000.00,029.7,028.4,000.0,038.3,031.3,30.9,0000.0,0003.85,0006.70,0003.49
2023-08-06 14:18:00,SystemResetWarning,0838.3,5.01,000.00,029.7,028.4,000.0,038.4,031.3,30.9,0000.0,0003.84,0006.75,0003.50
2023-08-06 14:19:00,SystemResetWarning,0838.3,5.01,000.00,029.8,028.4,000.0,038.4,031.3,30.9,0000.0,0003.83,0006.72,0003.50
2023-08-06 14:20:00,SystemResetWarning,0838.3,5.00,000.00,029.8,028.5,000.0,038.4,031.3,31.1,0000.0,0003.83,0007.12,0003.50
2023-08-06 14:21:00,SystemResetWarning,0838.2,5.00,000.00,029.8,028.5,000.0,038.4,031.4,31.1,0000.0,0003.85,0007.28,0003.52
2023-08-06 14:22:00,SystemResetWarning,0838.3,4.99,000.00,029.8,028.5,000.0,038.4,031.4,31.1,-001.4,0003.86,0007.33,0003.53
2023-08-06 14:23:00,SystemResetWarning,0838.3,5.00,000.00,029.8,028.5,000.0,038.4,031.4,31.1,-003.1,0003.90,0007.48,0003.55
2023-08-06 14:24:00,SystemResetWarning,0838.3,4.99,000.00,029.8,028.5,000.0,038.4,031.4,31.3,-003.1,0003.90,0007.49,0003.57
2023-08-06 14:25:00,SystemResetWarning,0838.3,5.00,000.00,029.8,028.6,000.0,038.4,031.4,31.2,-003.4,0003.88,0007.51,0003.57
2023-08-06 14:26:00,SystemResetWarning,0838.3,5.01,000.00,029.8,028.6,000.0,038.4,031.4,30.9,-003.3,0003.86,0007.39,0003.57
2023-08-06 14:27:00,SystemResetWarning,0838.4,5.00,000.00,029.9,028.6,000.0,038.4,031.4,30.8,-003.0,0003.85,0006.74,0003.57
2023-08-06 14:28:00,SystemResetWarning,0838.4,5.00,000.00,029.9,028.6,000.0,038.4,031.4,30.9,-003.0,0003.85,0007.59,0003.58
2023-08-06 14:29:00,SystemResetWarning,0838.4,4.99,000.00,029.9,028.6,000.0,038.5,031.4,31.0,-002.8,0003.84,0007.51,0003.59
2023-08-06 14:30:00,SystemResetWarning,0838.5,4.99,000.00,029.9,028.6,000.0,038.5,031.5,30.9,-002.2,0003.87,0007.53,0003.61
2023-08-06 14:31:00,SystemResetWarning,0838.5,4.99,000.00,029.9,028.6,000.0,038.5,031.5,30.9,-002.1,0003.88,0007.37,0003.63
2023-08-06 14:32:00,SystemResetWarning,0838.6,5.00,000.00,029.9,028.7,000.0,038.5,031.5,30.8,-001.9,0003.87,0007.23,0003.63
2023-08-06 14:33:00,SystemResetWarning,0838.6,5.01,000.00,029.9,028.7,000.0,038.5,031.5,30.8,-001.7,0003.88,0007.24,0003.64
2023-08-06 14:34:00,SystemResetWarning,0838.6,5.01,000.00,030.0,028.7,000.0,038.5,031.5,30.7,-002.0,0003.89,0007.16,0003.65
2023-08-06 14:35:00,SystemResetWarning,0838.6,4.99,000.00,030.0,028.7,000.0,038.5,031.5,30.6,-001.8,0003.89,0007.06,0003.66
2023-08-06 14:36:00,SystemResetWarning,0838.6,4.99,000.00,030.0,028.7,000.0,038.5,031.5,30.4,-001.9,0003.93,0006.99,0003.67
2023-08-06 14:37:00,SystemResetWarning,0838.6,5.00,000.00,030.0,028.7,000.0,038.6,031.6,30.4,-002.2,0003.95,0007.04,0003.69
2023-08-06 14:38:00,SystemResetWarning,0838.5,5.01,000.00,030.0,028.7,000.0,038.6,031.6,30.4,-002.5,0003.98,0007.23,0003.72
2023-08-06 14:39:00,SystemResetWarning,0838.6,5.00,000.00,030.0,028.7,000.0,038.6,031.6,30.4,-002.5,0004.01,0006.21,0003.74
2023-08-06 14:40:00,SystemResetWarning,0838.6,4.99,000.00,030.0,028.8,000.0,038.6,031.6,30.7,-002.7,0004.05,0006.38,0003.76
2023-08-06 14:41:00,SystemResetWarning,0838.6,4.99,000.00,030.0,028.8,000.0,038.6,031.6,30.3,-002.8,0004.05,0006.59,0003.75
2023-08-06 14:42:00,SystemResetWarning,0838.6,5.01,000.00,030.0,028.8,000.0,038.6,031.6,30.4,-002.9,0004.04,0006.72,0003.74
2023-08-06 14:43:00,SystemResetWarning,0838.6,5.01,000.00,030.1,028.8,000.0,038.6,031.6,30.6,-003.0,0004.07,0006.89,0003.75
2023-08-06 14:44:00,SystemResetWarning,0838.5,4.99,000.00,030.1,027.7,000.0,038.5,031.5,30.6,-003.1,0004.07,0006.83,0003.76
2023-08-06 14:45:00,SystemResetWarning,0838.6,5.00,000.00,030.0,025.9,000.0,038.4,031.2,30.7,-003.0,0004.05,0006.77,0003.75
2023-08-06 14:46:00,SystemResetWarning,0838.6,5.01,000.00,029.9,025.4,000.0,038.3,031.0,30.8,-003.3,0004.07,0006.93,0003.75
2023-08-06 14:47:00,SystemResetWarning,0838.6,5.02,000.00,029.7,025.5,000.0,038.3,030.8,30.8,-003.0,0004.09,0007.07,0003.76
2023-08-06 14:48:00,SystemResetWarning,0838.6,5.00,000.00,029.7,025.9,000.0,038.3,030.8,30.8,-003.0,0004.12,0007.29,0003.75
2023-08-06 14:49:00,SystemResetWarning,0838.6,5.00,000.00,029.6,026.3,000.0,038.3,030.9,31.2,-003.1,0004.09,0007.32,0003.74
2023-08-06 14:50:00,SystemResetWarning,0838.5,5.00,000.00,029.6,026.7,000.0,038.3,031.0,31.1,-003.4,0004.09,0007.50,0003.73
2023-08-06 14:51:00,SystemResetWarning,0838.6,4.99,000.00,029.6,027.0,000.0,038.3,031.0,31.2,-003.4,0004.07,0007.49,0003.72
2023-08-06 14:52:00,SystemResetWarning,0838.6,4.99,000.00,029.6,027.3,000.0,038.3,031.1,31.0,-003.8,0004.06,0007.35,0003.73
2023-08-06 14:53:00,SystemResetWarning,0838.6,5.00,000.00,029.6,027.5,000.0,038.3,031.1,30.9,-004.1,0004.07,0007.23,0003.74
2023-08-06 14:54:00,SystemResetWarning,0838.6,5.00,000.00,029.6,027.7,000.0,038.3,031.1,30.9,-004.1,0004.07,0007.18,0003.74
2023-08-06 14:55:00,SystemResetWarning,0838.6,5.01,000.00,029.6,027.8,000.0,038.3,031.1,30.9,-004.1,0004.07,0007.43,0003.74
2023-08-06 14:56:00,SystemResetWarning,0838.6,5.01,000.00,029.6,027.9,000.0,038.3,031.1,30.9,-004.0,0004.11,0008.26,0003.75
2023-08-06 14:57:00,SystemResetWarning,0838.6,5.00,000.00,029.6,028.0,000.0,038.3,031.2,30.7,-003.7,0004.12,0008.48,0003.76
2023-08-06 14:58:00,SystemResetWarning,0838.6,5.00,000.00,029.6,028.1,000.0,038.3,031.2,30.6,-003.9,0004.11,0008.41,0003.76
2023-08-06 14:59:00,SystemResetWarning,0838.6,4.99,000.00,029.6,028.2,000.0,038.3,031.2,30.7,-004.0,0004.08,0008.41,0003.76
